24h
KLIENDITUGI:
Saartelennuliinid: +372 58856336 (24/7)
Estairi piletikassa lennujaamas:
+372 6058887; +372 55603687

04.04.2018 õhtune Transaviabaltika lend KTB676 kell 17:00 (kohalik aeg) Tallinn - Kärdla väljalend ja KTB677 kell 17:45 Kärdla – Tallinn väljalend jääb ära. Lennu ära jäämise põhjustab ilmastikuolu Kärdla lennuväljal. Reisijad toimetatakse sihtkohta bussiga. Tallinna lennujaama alumise korruse busside ootealalt väljub buss kell 17:05. Bussi number on 845 BRG Reisijad viiakse Rohuküla sadamasse kella 19:00 väljuvale praamile. Heltermaal ootab reisijaid Gobus mis toimetab reisijad Kärdla. Kärdla lennujaamast väljub buss kell 16:50 mis toimetab reisijad Heltermaa sadamasse kella 17:30 praamile. Rohukülas ootab buss 845 BRG mis toimetab reisijad Tallinna. Lennuettevõtte poolt korraldatud bussisõit sh bussiga sõitjatele ka praamisõit on reisijatele tasuta. Kõikidele reisijatele kes ei kasuta lennuettevõtte poolt korraldatud tasuta bussisõitu sihtkohta, tagastatakse piletiraha. Lisainformatsioon 58856336. Informatsiooni vahetus: [email protected]

 

EEKA Kärdla lennuväli
FCEO32 EETN 041200 
TAF EEKA 041200Z 0413/0419 15015KT 5000 RA OVC005 TEMPO 0413/0419 
    1200 RADZ BR OVC003= 

METAR EEKA 041250Z 15014G24KT 5000 OVC004 03/03 Q1007=

Kuupäev: 
04/04/2018